Theta_e
322 319 318 318 319 319 319 320 321 322 324 327 335 335 325 327 334 331 326 327 329 328 326 325 325 325 326 324 318 313 311 309 308 307 307 306 305 305 305 304 304 305 304 304 305 306 308 310 313 317 320 322 322 322 322 322 322 322 322 322 322 323 324 324 323 322 320 321 322 322 321 321 321 321 316 312 312 314 316 318 319 318 315 314 315 315 313
322 319 319 319 318 320 319 318 318 321 325 327 328 327 325 327 331 329 325 327 328 327 325 325 324 326 325 320 314 311 309 308 308 307 306 306 305 305 304 303 303 303 303 303 303 303 303 303 305 308 312 316 319 320 321 322 322 322 322 322 321 322 323 324 324 323 322 323 324 323 323 322 322 321 319 318 318 319 319 320 321 319 316 314 314 315 315
322 321 321 318 318 323 322 318 317 319 325 329 329 328 327 326 326 324 324 327 327 325 324 324 324 325 322 316 312 310 309 308 308 307 306 305 305 304 303 303 302 302 302 302 302 301 302 302 303 303 305 309 313 316 318 320 321 320 319 320 320 322 323 323 323 324 323 323 323 322 322 322 322 322 321 321 322 322 322 321 321 320 317 315 315 315 315
322 321 322 319 319 323 324 319 315 317 323 328 327 326 326 325 324 324 325 327 326 324 323 322 322 322 318 313 310 309 308 307 307 306 305 305 304 303 303 302 302 301 301 301 301 301 301 301 302 303 303 306 307 308 310 311 312 311 310 311 312 315 318 320 321 321 321 321 321 321 321 321 322 323 322 322 322 322 323 322 322 321 319 318 317 317 315
322 319 321 321 320 323 324 318 313 313 319 324 324 323 323 323 323 324 325 325 324 323 322 321 319 318 315 310 308 307 307 306 306 305 305 304 303 303 303 302 301 301 301 301 301 300 300 300 301 302 303 304 305 305 305 305 305 305 305 305 305 306 308 310 311 311 312 314 316 318 319 320 321 322 322 322 322 322 322 323 323 323 322 322 321 320 319
323 320 321 321 321 323 322 316 311 311 315 320 323 323 321 321 322 322 323 323 322 321 320 317 314 312 310 308 306 306 306 305 305 304 304 303 303 303 302 302 301 301 300 300 299 300 300 300 300 301 303 303 304 304 304 304 304 304 304 304 303 303 303 304 304 305 306 308 309 310 312 315 316 317 317 318 320 322 322 323 323 323 323 322 322 321 321
322 321 322 323 322 321 318 315 312 309 311 316 319 320 318 318 318 318 319 320 318 315 313 310 309 307 307 306 306 306 305 304 305 304 303 302 302 302 302 301 301 301 300 299 299 299 300 300 300 301 302 303 303 303 303 303 303 303 304 303 303 303 302 303 303 303 304 304 305 306 307 308 309 309 310 311 313 315 316 319 321 321 322 322 322 322 322
320 321 323 323 320 316 316 316 313 310 310 313 316 318 317 315 314 314 314 314 312 310 310 309 308 307 306 306 305 304 303 303 303 303 302 301 301 301 301 301 301 300 300 300 300 299 299 300 300 300 301 302 303 303 302 302 302 302 302 302 302 302 301 302 302 302 303 303 303 304 304 305 305 305 305 306 306 307 308 310 312 314 315 316 317 318 320
319 321 320 318 317 316 316 315 312 311 311 311 313 317 316 313 312 311 311 311 310 310 311 309 308 307 307 306 304 303 302 301 301 300 299 299 299 299 299 299 299 299 300 300 300 300 300 300 300 300 301 302 303 303 303 302 302 301 301 301 301 301 301 301 301 301 302 302 302 302 302 303 303 303 303 303 303 304 304 305 305 305 307 308 309 312 314
319 321 318 317 319 318 316 314 312 312 312 309 310 314 316 314 312 309 309 310 310 309 310 309 308 309 308 306 304 302 301 301 300 300 299 299 298 299 299 299 299 299 299 299 299 300 301 300 299 300 301 302 302 303 302 302 301 301 301 300 300 300 300 300 300 300 300 301 301 301 301 301 301 301 302 302 302 302 302 302 303 302 303 305 306 307 308
319 322 320 318 319 317 314 313 312 312 312 309 310 316 317 314 312 309 308 308 308 308 309 308 308 310 309 305 302 301 301 300 300 301 300 299 300 300 300 301 300 300 300 300 299 300 300 300 300 300 301 301 302 302 302 301 300 300 301 301 300 300 300 300 300 300 300 300 300 300 300 300 300 300 301 301 301 301 301 301 302 302 302 303 304 305 305
319 320 318 316 315 314 311 309 310 310 310 311 315 320 317 313 312 311 310 309 308 308 308 308 309 308 306 303 302 301 300 299 299 300 300 299 300 300 300 301 301 301 300 300 300 300 300 301 301 301 301 301 302 302 301 300 300 300 300 300 300 300 300 300 300 300 300 300 300 300 300 300 300 300 300 300 300 300 301 301 301 301 302 302 302 303 303
316 317 315 314 313 312 308 307 309 309 309 313 318 319 315 313 312 311 309 310 309 307 306 307 306 304 302 301 301 300 300 299 299 299 299 300 300 300 300 300 300 301 301 300 300 300 301 301 301 301 301 301 301 301 300 300 300 300 300 300 300 300 300 300 300 299 299 299 299 299 299 299 299 300 299 299 300 300 300 300 300 300 301 301 301 302 302
314 314 314 312 312 310 306 306 308 308 312 317 316 311 309 311 311 308 307 307 306 305 304 303 302 302 301 300 300 300 300 300 299 298 299 299 298 298 299 299 300 301 301 301 301 301 300 300 301 301 301 301 301 301 300 300 300 300 300 300 299 299 299 299 299 299 299 299 299 299 299 299 299 299 299 299 299 299 299 299 300 300 300 300 301 301 301
313 313 312 313 312 308 305 307 310 310 312 313 309 305 304 306 306 306 306 305 304 304 303 302 301 301 300 300 300 300 300 300 299 298 298 298 298 298 298 299 300 300 301 301 301 300 300 300 301 301 301 301 301 300 300 300 300 299 299 299 299 299 299 298 299 298 298 298 298 298 299 299 299 299 299 299 299 299 299 299 299 299 299 299 299 299 300
312 312 310 309 308 305 304 308 309 307 305 305 305 304 304 304 304 304 305 304 303 302 302 301 301 300 301 301 301 301 301 300 298 298 298 298 298 299 299 299 299 300 300 301 301 301 300 300 301 300 301 300 300 300 299 299 299 299 299 299 299 299 298 298 298 298 298 298 298 298 298 298 298 298 298 298 298 298 298 298 298 298 298 298 298 298 298
308 309 307 306 305 303 304 305 304 303 302 302 302 302 302 303 303 303 303 304 303 302 301 301 300 300 301 301 301 301 303 301 298 298 298 298 299 299 299 299 299 300 300 301 301 301 300 300 300 300 300 300 299 299 299 299 299 299 299 299 298 298 298 298 297 297 297 298 298 298 298 298 297 297 298 297 298 298 298 298 298 297 297 297 297 297 297
305 305 305 304 304 304 303 303 302 302 302 301 301 302 302 302 302 301 301 302 302 301 301 300 301 301 301 301 301 301 301 299 297 298 299 299 299 299 299 299 299 300 300 300 300 300 300 300 300 299 299 299 299 298 298 298 299 298 298 298 298 298 298 297 297 297 297 297 297 297 297 297 297 297 297 297 297 297 297 297 297 297 297 297 296 296 296
307 307 304 303 304 303 302 303 302 302 302 301 301 302 302 302 303 302 302 302 302 301 301 300 300 301 301 301 300 301 301 299 297 297 298 298 299 299 298 299 299 299 300 300 299 299 299 299 299 299 299 299 298 298 298 299 298 298 298 298 298 298 297 297 297 297 297 297 297 297 297 297 296 296 296 296 296 296 296 296 296 296 296 296 296 296 296
309 307 304 303 304 303 302 303 302 301 302 302 302 302 302 303 303 302 302 303 304 304 304 303 301 300 300 300 300 300 300 298 297 297 297 298 298 298 298 298 298 299 299 299 299 299 299 299 299 299 298 298 298 298 299 299 298 298 298 298 298 297 297 296 296 296 296 296 296 296 296 296 296 296 296 295 295 296 296 296 296 296 296 296 295 295 295
307 305 304 304 304 303 302 302 302 302 302 302 302 303 302 302 302 302 302 302 302 303 303 302 300 300 299 299 299 299 298 296 296 297 297 298 298 298 298 298 298 298 299 299 299 299 299 299 298 298 298 298 298 298 299 298 298 298 298 297 297 296 296 296 296 296 296 296 296 295 296 295 295 296 296 295 296 296 296 296 296 296 296 295 295 295 295
307 307 305 305 306 304 302 302 302 302 302 302 302 302 302 303 302 303 303 302 300 300 300 299 299 301 300 298 298 297 296 296 296 297 297 297 297 297 297 297 298 298 298 298 298 299 298 298 299 298 298 298 298 298 299 298 298 298 297 297 297 297 297 297 296 296 296 295 295 296 296 296 296 296 296 296 296 296 296 296 296 296 296 295 295 295 295
308 309 307 306 306 305 303 303 303 303 302 303 303 303 304 304 301 301 303 303 301 300 299 298 298 298 297 297 296 295 295 296 297 297 296 297 297 297 297 298 298 298 298 298 298 298 298 298 298 297 297 298 298 298 298 298 298 297 297 297 297 297 297 297 297 296 296 296 296 296 296 296 296 296 296 296 295 295 295 295 295 295 295 295 295 295 294
306 307 306 305 305 304 303 304 304 303 301 302 303 303 302 300 298 297 299 300 301 300 298 297 297 296 295 295 295 294 294 295 296 296 296 296 297 297 297 297 297 297 298 298 298 298 298 298 298 298 298 298 298 298 298 298 298 298 298 298 298 298 297 297 297 296 296 297 297 296 296 295 295 295 295 295 294 294 294 294 294 294 295 295 295 294 294
306 305 304 303 303 303 302 301 301 301 299 299 301 301 299 296 296 296 296 295 296 297 296 295 296 296 295 295 295 295 295 295 295 296 296 296 296 296 296 297 297 297 297 297 297 297 297 298 298 298 298 298 298 298 298 298 298 298 298 298 298 297 297 297 297 297 297 296 296 295 294 294 294 294 294 294 294 294 294 294 294 294 294 294 294 294 293
304 303 303 302 301 301 300 299 299 299 298 298 299 298 297 296 296 296 296 295 295 296 296 295 295 296 296 295 295 295 295 295 296 296 296 296 296 296 296 296 296 296 297 297 297 297 297 297 297 298 298 298 298 298 298 298 298 298 297 297 297 297 297 297 297 297 296 296 295 294 294 294 293 293 293 294 294 294 294 294 294 294 294 294 294 293 294
302 302 302 301 300 300 301 300 299 298 297 297 297 297 297 297 296 296 296 296 295 296 296 296 295 296 296 296 296 296 295 296 296 295 296 296 295 296 296 295 295 295 296 296 297 297 297 297 297 298 298 298 298 298 298 298 298 298 297 297 297 297 297 296 297 296 296 295 295 294 294 294 293 293 293 293 293 294 294 294 294 293 293 293 293 294 294
301 301 301 301 301 301 300 300 298 297 297 297 297 297 297 297 297 296 297 296 294 294 295 296 296 296 296 295 296 295 295 295 295 295 295 295 295 295 295 295 294 294 295 296 296 296 296 297 297 298 298 298 298 298 298 298 298 297 297 297 297 297 297 296 296 296 295 294 294 294 294 294 294 293 292 292 292 293 293 293 293 293 293 293 294 294 295
301 301 300 300 299 298 298 298 298 298 299 297 297 297 297 298 300 300 298 296 295 294 294 295 296 296 296 295 295 295 295 295 295 295 295 295 295 295 295 295 294 294 294 295 296 296 296 297 297 297 297 298 297 298 298 298 298 297 297 297 297 297 296 296 296 295 295 294 294 294 294 294 294 293 293 292 292 292 293 293 293 293 293 294 294 294 295
302 302 303 301 298 297 299 299 300 301 300 297 297 297 296 297 301 302 298 295 294 294 294 295 295 295 295 295 295 295 295 294 294 294 294 294 294 294 294 294 294 294 294 294 295 295 296 297 296 296 297 297 297 297 298 298 298 297 297 297 297 297 296 296 295 295 294 294 295 294 294 294 294 293 293 293 293 293 293 293 293 293 293 294 293 294 294
303 304 305 304 303 302 302 302 302 302 299 297 298 299 298 298 302 303 299 295 294 294 294 295 295 295 295 295 295 295 295 294 294 293 293 293 293 293 294 293 294 293 293 294 294 295 296 296 296 296 297 297 297 297 298 298 298 297 297 297 297 296 296 295 295 294 294 295 295 295 295 295 294 294 294 294 294 294 293 293 293 294 294 294 293 293 294
303 303 303 304 304 303 303 303 302 301 299 298 299 300 299 299 300 301 298 296 294 294 294 295 294 295 295 294 294 293 292 291 291 290 290 291 291 292 293 293 293 293 293 293 294 295 296 296 296 296 297 297 296 297 298 298 297 297 297 297 296 296 295 295 295 294 295 295 295 295 295 295 295 294 294 294 294 294 294 294 294 294 294 293 293 293 294
303 302 301 302 302 301 301 301 300 300 300 299 298 296 295 295 296 296 296 295 294 294 295 295 295 295 294 293 292 291 289 289 289 289 290 291 291 292 292 292 292 292 293 293 293 295 295 295 296 297 297 296 296 296 298 298 297 297 297 296 296 296 295 295 294 294 295 295 295 295 295 295 295 295 295 295 295 295 294 294 294 294 294 293 293 294 295
302 302 302 302 302 301 300 299 299 300 301 300 296 294 294 296 296 296 295 294 294 294 295 295 295 294 293 292 291 289 288 288 289 290 291 291 292 292 291 292 292 292 292 293 294 295 295 296 296 297 296 296 295 296 297 297 297 297 297 296 296 295 294 294 294 294 295 295 295 294 295 295 295 295 295 295 295 294 294 293 293 294 294 294 294 295 295
299 299 299 299 299 298 297 297 298 300 301 300 297 296 296 296 296 296 295 295 295 295 295 295 294 293 292 291 289 288 288 288 289 291 292 292 292 291 291 291 291 291 292 294 295 295 296 296 296 296 295 295 296 297 297 297 296 297 297 296 295 294 294 294 294 294 294 295 294 294 295 295 295 296 296 295 295 294 294 294 294 294 294 294 294 294 295
297 297 296 296 297 296 295 296 296 297 298 297 297 296 296 296 296 296 296 295 295 295 295 294 293 292 291 290 289 288 288 288 290 291 292 292 291 291 291 291 291 290 291 293 295 296 296 296 295 295 295 296 297 297 297 296 296 296 296 296 295 294 294 294 294 294 294 294 294 294 294 295 295 296 296 295 294 294 294 294 294 294 294 293 294 294 294
296 296 295 296 296 296 296 296 297 296 296 296 296 296 297 296 296 296 295 295 295 295 295 294 293 292 291 290 289 288 288 289 290 291 291 291 292 291 291 290 290 289 290 292 294 295 296 295 294 295 296 297 297 296 296 296 296 296 296 295 294 293 294 294 294 293 293 293 293 293 294 295 295 295 295 295 294 294 294 294 294 293 293 293 293 294 294
297 297 297 296 296 297 296 297 297 297 297 296 296 297 297 297 296 296 295 295 295 294 294 294 293 292 291 290 289 288 288 289 290 291 291 292 292 291 291 290 289 289 290 292 293 294 294 294 294 296 297 297 297 296 295 295 296 297 296 295 294 293 293 293 293 293 293 293 292 293 294 294 294 294 294 294 294 293 293 293 293 293 293 292 292 293 293
297 297 297 296 297 297 297 297 297 297 297 296 296 297 297 297 296 295 295 295 295 294 294 293 293 292 291 290 289 289 289 290 291 292 292 292 292 291 291 290 289 289 291 292 293 293 293 293 294 295 296 295 295 295 295 294 296 297 296 295 294 293 293 293 293 293 293 292 292 292 293 293 293 293 293 293 293 293 293 293 293 292 292 292 292 292 292
297 297 297 297 297 297 297 297 297 297 297 297 296 296 297 296 296 295 295 295 295 294 294 293 293 292 291 291 290 290 291 292 293 293 293 292 291 291 290 290 289 290 291 292 292 292 293 294 294 294 294 293 293 295 294 294 295 296 296 295 294 293 293 293 292 292 292 292 292 292 293 293 293 293 293 293 293 293 293 292 292 292 291 291 291 291 291
297 297 297 297 297 297 297 297 297 297 297 297 297 297 297 297 296 296 295 295 295 294 294 294 293 293 292 292 291 292 292 292 293 294 293 292 291 290 289 290 291 292 292 293 293 292 292 293 294 294 293 292 293 294 294 294 294 296 296 295 294 293 293 292 292 292 292 292 292 292 293 293 293 293 293 293 293 293 292 292 292 292 292 291 291 291 292
298 297 297 297 297 297 297 297 296 297 297 297 297 298 297 297 297 297 296 296 295 294 294 294 294 293 293 292 292 293 292 292 292 293 292 292 291 290 289 291 293 293 293 294 293 291 290 292 294 294 292 291 292 294 294 293 294 296 296 295 294 293 293 292 292 292 291 291 292 292 293 293 293 293 293 293 293 292 292 292 292 291 291 291 291 292 292
298 298 298 298 298 297 298 297 297 297 297 296 297 297 297 297 297 297 296 296 295 294 294 294 293 293 293 293 292 292 292 292 292 292 292 292 292 292 291 293 293 293 294 294 293 291 290 292 294 293 292 291 292 294 294 294 295 296 296 295 294 293 293 292 292 291 291 291 291 292 293 293 293 293 293 292 292 292 292 292 291 291 291 291 292 292 292
297 297 298 298 298 297 297 297 297 296 296 296 297 297 297 297 297 297 297 296 295 294 294 294 293 293 293 292 291 291 291 290 291 291 292 292 292 292 292 293 293 293 293 293 291 290 291 292 293 293 291 291 292 294 294 295 296 296 296 295 294 293 293 292 292 291 291 290 291 292 292 292 292 292 292 292 292 292 292 291 291 291 291 292 292 291 291
297 297 297 297 297 297 297 297 297 297 296 297 297 297 297 297 297 297 297 297 296 295 295 294 294 293 292 292 292 292 291 291 291 291 291 291 292 292 292 292 292 293 292 291 289 289 291 293 293 292 291 291 293 293 294 295 296 296 295 295 294 293 293 292 292 291 291 290 290 291 292 292 292 292 292 292 292 292 292 291 291 291 291 291 291 291 290
297 298 297 297 298 298 297 297 297 297 297 297 296 297 297 297 297 297 297 297 297 296 296 295 295 294 293 293 293 292 291 291 291 291 291 291 291 291 291 292 292 291 291 289 288 289 291 292 291 290 290 291 292 293 293 294 295 295 295 295 294 293 293 293 292 292 291 291 291 291 291 291 292 292 292 292 292 292 291 291 291 291 291 291 290 290 290
298 298 297 298 297 298 298 298 297 297 297 296 296 296 297 297 297 297 297 297 297 297 297 296 295 294 294 294 293 292 291 291 291 291 291 290 290 290 291 291 291 291 290 288 288 289 291 291 289 288 290 291 292 293 293 294 294 294 294 294 294 294 293 292 292 292 291 291 291 291 291 291 291 291 291 291 291 291 291 291 291 290 290 290 290 290 290
298 298 298 298 297 297 297 297 297 297 296 296 296 296 296 297 297 297 297 297 297 297 297 297 296 295 294 294 294 292 292 291 291 291 291 291 290 290 291 291 291 291 290 289 288 289 289 288 287 288 290 292 292 292 292 293 293 293 293 294 294 294 293 292 292 292 291 291 291 291 291 291 291 291 291 291 291 291 291 291 291 290 290 290 290 290 290
299 299 298 298 297 297 297 297 297 297 297 296 296 296 296 297 297 297 296 297 297 297 296 296 296 295 295 295 294 293 292 292 291 291 291 291 290 290 290 290 290 289 288 287 287 287 287 286 287 289 291 292 291 292 292 292 291 292 292 293 293 293 293 293 292 292 292 291 291 291 291 291 291 291 291 291 291 291 291 291 290 290 290 290 289 289 289
299 299 298 298 297 297 297 297 297 297 296 295 295 296 296 296 296 297 297 297 297 296 296 296 296 296 295 295 294 293 292 291 291 291 291 291 291 290 290 291 290 288 286 287 288 287 286 287 290 291 291 291 291 291 291 291 290 290 290 291 292 293 293 293 292 292 291 291 291 291 291 291 291 291 291 291 291 290 290 290 290 289 289 289 289 289 289
298 298 298 298 297 297 297 297 297 296 296 295 296 296 296 296 296 296 296 296 296 296 296 296 296 296 296 295 294 293 292 291 291 291 291 291 291 290 291 291 289 287 286 288 289 288 287 289 291 291 291 291 291 291 290 290 289 289 289 290 291 292 292 292 292 291 291 291 291 291 290 290 290 290 290 290 290 290 290 290 289 289 289 289 288 288 288
298 298 298 297 297 297 297 296 296 296 296 296 296 296 296 296 296 296 296 296 296 296 296 296 296 296 296 296 294 293 292 291 291 291 291 291 291 291 291 290 289 287 287 289 290 290 289 290 290 290 290 291 290 290 290 290 290 289 289 289 290 290 291 291 290 290 290 291 290 290 290 290 290 290 290 289 289 289 289 289 289 289 288 288 288 288 288
Wind_Speed
4 5 4 7 11 10 10 10 10 10 11 10 8 4 2 3 6 6 7 12 12 10 9 9 9 9 9 9 9 10 10 11 12 13 15 15 14 14 14 12 12 13 12 11 14 18 19 18 17 18 20 18 17 15 14 13 12 12 10 12 15 17 17 17 17 18 17 14 13 12 12 12 11 9 9 9 10 10 10 7 4 8 14 12 10 13 15
6 9 7 5 9 9 9 10 9 9 9 7 6 6 5 2 5 10 13 12 7 5 7 9 8 6 7 9 10 11 12 12 13 14 15 14 13 13 13 12 12 12 11 12 16 19 21 21 21 22 20 15 14 14 14 16 16 16 15 17 19 18 17 17 17 18 20 18 14 11 10 12 13 13 11 10 9 8 7 6 4 7 13 14 12 13 13
5 8 10 7 7 9 9 9 10 10 10 8 6 6 6 6 6 10 14 13 6 2 4 6 6 5 7 10 12 11 10 11 13 14 14 13 12 12 11 11 11 11 11 13 18 20 20 21 23 24 23 20 18 17 17 19 19 19 18 17 17 16 15 13 13 13 14 12 11 10 8 9 11 12 12 11 9 6 5 5 3 5 11 14 13 13 14
3 6 8 6 4 10 10 10 12 11 8 5 4 4 3 4 7 10 12 9 5 3 6 8 8 7 10 11 11 11 9 10 13 14 13 12 11 11 11 11 11 12 11 14 17 18 19 22 24 24 24 26 25 24 24 25 25 26 26 25 24 22 18 14 11 11 10 9 9 9 8 7 8 8 8 9 7 5 5 5 4 4 7 8 8 10 13
2 6 7 4 2 6 6 6 8 7 5 3 2 3 4 4 5 8 7 5 5 6 8 10 9 8 9 9 9 10 10 10 12 12 12 12 11 11 12 11 11 11 12 15 19 20 20 22 23 23 25 27 26 25 26 27 28 29 30 30 30 29 27 24 21 19 19 18 16 12 8 6 6 6 4 3 2 2 2 2 2 1 2 3 4 5 8
0 5 6 3 2 3 1 1 3 5 5 3 2 3 5 5 3 3 5 6 7 7 7 9 10 8 9 9 8 8 8 9 10 10 10 10 10 11 11 10 9 11 14 17 21 23 23 23 22 23 26 27 25 25 27 28 29 29 29 29 30 30 29 27 25 24 24 24 22 20 17 14 12 12 11 9 6 3 2 2 2 3 3 3 5 6 7
2 2 4 3 2 1 1 2 3 5 5 4 6 8 7 8 6 6 8 9 9 9 9 10 12 13 12 12 10 8 7 7 9 10 8 8 10 10 9 9 9 12 16 19 21 23 23 24 25 25 26 26 27 27 28 29 29 28 28 28 27 27 27 25 24 23 23 23 22 20 19 18 17 16 15 14 12 10 7 4 4 4 4 4 5 8 10
2 1 2 2 1 2 2 3 5 5 5 5 6 8 8 8 6 7 9 9 10 12 12 11 11 12 13 12 10 8 8 7 8 9 7 6 8 8 8 10 11 13 16 16 17 18 18 21 24 25 25 26 26 27 27 28 28 27 27 26 25 24 24 23 22 21 21 21 21 19 18 17 17 17 16 15 14 12 10 8 7 5 4 4 6 7 9
2 2 2 2 1 2 3 3 4 2 1 3 2 3 5 6 5 8 10 11 11 11 12 11 9 9 12 11 8 7 9 9 9 9 9 8 10 10 12 14 14 15 15 15 14 14 15 19 21 21 22 24 25 26 26 26 26 26 26 26 23 22 23 22 21 20 19 19 20 20 18 18 18 17 16 15 14 13 12 10 9 9 8 7 7 8 8
2 3 3 2 1 1 1 3 4 2 4 3 2 1 3 6 4 8 12 12 12 11 11 11 8 7 10 8 4 4 6 7 9 10 11 11 13 13 14 15 15 15 16 15 15 14 16 18 19 18 19 21 22 24 25 24 25 25 25 24 22 21 21 21 20 20 18 17 18 19 19 19 19 18 17 16 15 14 13 13 12 12 12 11 10 10 10
2 3 3 2 1 1 2 5 7 4 3 3 3 1 2 5 3 6 10 11 11 11 10 8 6 5 7 4 1 1 3 6 8 8 9 10 12 12 13 13 13 13 14 15 16 17 18 18 17 16 16 18 20 22 21 20 22 22 22 21 21 21 21 20 20 19 19 18 18 18 19 19 19 19 18 17 16 15 15 14 14 14 14 14 13 13 13
2 3 3 2 1 1 3 6 7 5 3 4 2 2 1 2 3 5 7 8 7 8 8 5 2 3 6 7 5 4 5 7 9 9 9 10 10 10 10 11 12 12 13 14 15 16 16 14 13 13 14 16 18 19 19 19 20 19 18 17 17 17 18 19 19 19 19 19 18 18 19 19 18 18 18 18 18 18 18 17 17 17 16 17 16 16 15
3 3 3 1 1 2 4 6 8 5 2 2 2 2 3 2 4 5 7 7 5 3 4 4 4 4 7 9 8 6 7 8 9 11 12 11 10 9 8 7 8 10 11 12 13 14 13 12 11 12 13 16 17 17 18 18 17 15 14 15 15 14 14 16 16 17 17 18 18 18 18 17 17 17 18 19 19 19 19 19 19 19 19 19 18 18 17
2 3 3 1 1 3 5 7 6 3 1 2 1 1 1 2 4 5 7 9 8 7 7 8 8 8 10 11 9 7 8 8 9 12 13 12 11 11 11 10 8 7 9 11 12 13 13 12 12 12 14 16 16 16 17 17 16 14 14 14 14 14 14 15 16 16 17 17 17 17 18 18 17 17 17 17 17 18 18 18 18 18 18 18 18 18 18
2 3 3 2 1 4 9 7 4 3 2 1 0 3 5 5 5 6 6 7 9 10 10 10 11 11 10 9 8 8 7 7 9 12 13 13 13 13 15 15 10 9 11 12 11 11 11 10 10 11 12 13 13 14 16 16 14 13 14 14 14 15 16 17 18 18 18 18 17 17 18 18 17 17 17 16 16 16 17 18 18 18 18 18 20 21 20
2 2 2 2 0 5 8 5 3 2 2 1 2 4 5 6 5 5 5 5 7 11 12 11 11 11 9 8 8 8 7 7 9 11 13 13 14 13 15 15 12 9 9 11 11 11 9 8 9 8 8 10 12 14 15 13 12 12 13 14 15 16 18 19 19 19 19 18 17 17 17 17 17 17 17 17 16 16 17 18 19 19 19 19 20 21 22
3 3 3 3 2 3 6 5 5 5 4 5 6 8 7 5 5 4 6 6 6 8 11 11 10 9 8 8 8 8 7 7 9 12 13 14 14 13 13 13 12 10 9 10 10 9 7 6 7 7 8 10 14 15 14 12 12 13 14 15 16 18 18 19 19 18 17 16 16 15 16 17 18 18 18 18 18 18 18 18 19 20 20 20 20 20 21
6 6 4 4 4 5 6 6 5 6 7 6 7 9 8 6 6 6 7 7 7 8 9 10 8 7 8 8 8 8 7 7 11 15 15 14 14 13 11 11 12 10 8 9 8 9 8 7 7 10 12 13 14 13 12 12 13 14 15 16 17 18 18 18 19 19 18 17 17 17 17 18 19 19 19 20 20 20 20 20 20 21 21 21 22 22 22
4 4 3 4 6 5 6 6 6 7 8 7 7 8 7 6 7 8 8 9 9 9 10 10 8 7 8 8 8 7 7 7 9 13 14 13 13 13 10 9 10 9 8 8 9 11 12 11 11 13 13 12 12 12 11 11 12 14 16 16 17 17 17 17 17 17 16 16 18 18 19 19 20 19 20 20 21 21 21 22 22 22 23 23 23 24 24
3 3 4 4 5 5 4 5 6 6 7 7 6 6 6 6 7 8 9 10 9 7 8 8 8 8 7 8 8 7 6 7 9 12 14 14 13 11 9 8 7 7 7 9 10 11 12 12 11 11 12 11 11 11 10 10 13 16 17 17 17 17 17 17 17 16 14 15 16 17 18 18 18 19 19 19 19 19 19 19 21 21 22 23 24 24 25
4 4 4 5 6 5 5 5 5 5 6 7 6 5 6 6 6 6 8 9 8 7 7 7 8 8 7 7 9 7 6 8 11 13 15 14 11 9 7 5 5 4 3 6 9 9 10 10 9 10 10 10 11 12 10 11 15 17 17 17 17 18 18 18 18 17 17 16 16 17 17 18 18 18 17 17 18 20 20 18 18 19 20 23 24 24 24
3 3 4 6 5 2 1 3 6 5 5 7 7 6 5 6 6 6 6 6 7 9 9 9 9 7 5 7 9 8 7 10 12 13 13 12 10 8 6 6 6 5 5 7 8 8 8 8 8 9 8 7 9 11 9 9 12 13 12 13 14 15 16 16 16 17 17 17 16 17 18 20 21 22 20 19 19 20 21 21 20 20 21 23 23 23 24
4 5 6 6 5 4 4 4 5 5 5 6 6 6 5 5 5 5 5 5 6 7 8 10 11 7 5 9 11 10 9 11 12 11 10 10 9 9 8 9 10 10 9 8 7 7 7 7 8 8 6 5 8 8 7 7 10 10 11 12 12 12 13 13 13 14 16 16 16 17 18 19 20 22 22 22 21 20 20 21 21 22 22 23 22 22 22
2 3 5 5 6 4 4 4 5 5 6 7 5 4 5 5 5 6 5 4 6 7 5 6 10 10 12 15 16 12 9 10 10 10 10 10 11 11 10 10 10 9 9 7 6 7 6 5 7 8 7 9 9 6 4 5 8 10 11 11 11 12 12 12 12 13 14 14 15 16 16 16 17 18 20 22 22 22 20 20 20 21 22 23 23 23 21
3 3 3 4 6 5 4 5 5 6 9 9 5 4 6 7 9 11 9 7 10 12 9 7 11 15 17 19 17 14 11 10 11 12 13 13 11 10 9 8 7 7 6 4 3 4 3 5 9 11 11 11 8 4 5 4 6 8 10 10 10 11 11 10 11 11 12 13 13 13 13 15 16 18 18 19 20 21 22 22 22 22 22 22 23 24 21
5 5 6 7 6 5 5 5 5 5 9 10 6 4 7 8 10 12 12 12 15 17 16 14 14 17 19 18 16 14 13 12 13 14 13 12 10 8 6 5 3 1 1 1 0 1 4 8 11 13 12 10 7 5 5 3 5 8 9 9 9 10 10 9 10 11 11 12 12 12 13 15 16 17 18 17 17 19 20 22 23 24 24 24 23 22 21
5 6 7 8 6 4 4 5 4 5 9 11 8 6 6 7 7 8 11 14 15 15 17 18 18 17 17 16 14 14 13 13 13 13 11 10 9 7 7 6 5 5 5 4 3 4 6 8 10 11 10 8 6 3 3 3 6 8 9 9 9 8 8 9 10 11 11 12 12 13 14 15 15 16 17 17 17 17 17 17 19 22 25 26 24 23 23
6 5 6 6 4 1 2 4 6 8 10 11 10 8 7 6 6 6 7 9 11 12 14 17 18 17 15 13 13 14 13 12 13 14 12 11 9 9 8 7 4 3 6 7 6 6 7 8 9 11 9 7 5 2 2 4 7 8 9 9 8 8 9 10 10 10 10 11 12 13 14 15 15 15 15 15 15 15 15 16 17 20 24 27 27 26 25
6 5 6 6 6 6 5 4 5 6 7 8 9 9 8 7 6 6 5 7 11 12 13 15 16 16 14 13 13 13 12 11 13 13 12 10 10 9 8 6 4 4 6 8 8 8 9 8 10 13 10 6 3 2 4 5 7 8 9 8 8 8 9 9 9 9 10 10 10 11 12 13 13 14 14 15 14 15 17 19 20 22 24 26 27 27 25
5 5 6 5 6 7 6 3 1 4 5 5 6 7 7 7 6 5 5 7 10 10 10 12 14 13 12 12 11 11 11 11 11 10 9 8 9 9 8 7 7 7 7 7 8 10 10 10 12 13 9 4 2 3 4 5 6 9 9 8 7 8 9 9 9 9 9 10 10 11 12 12 12 13 14 15 16 17 18 20 21 21 22 23 22 21 21
5 6 6 5 5 6 5 3 1 2 4 4 5 5 6 6 6 6 6 7 8 9 10 12 12 10 10 10 10 9 8 8 7 6 7 8 9 9 9 9 9 10 9 7 7 9 11 12 13 11 6 3 3 3 4 5 7 9 8 6 6 8 9 8 8 8 9 12 13 13 14 14 14 14 15 15 16 17 18 19 20 20 20 20 19 17 16
6 6 6 6 5 5 4 3 4 4 2 3 5 6 6 7 7 7 7 8 10 12 13 13 12 11 11 11 10 7 5 4 5 7 8 9 9 9 10 10 10 11 11 9 8 10 12 14 13 9 5 4 4 4 4 6 8 9 7 5 6 8 8 7 7 9 11 12 13 12 13 14 14 14 15 14 14 15 16 17 18 18 17 17 17 15 14
7 4 3 4 4 3 2 3 2 4 3 2 5 7 8 8 10 11 11 12 13 14 14 13 13 13 12 10 7 4 3 4 6 8 9 10 9 9 9 10 10 11 11 10 9 10 12 13 11 7 5 5 4 4 5 6 7 8 6 5 6 8 6 4 7 9 10 9 10 11 11 10 11 11 11 11 11 13 14 14 14 14 14 14 13 11 10
8 6 6 6 5 4 3 2 2 2 1 2 2 6 8 9 10 12 13 14 13 13 13 13 13 13 11 7 4 4 5 7 8 9 10 10 9 9 8 8 9 10 10 9 9 10 11 11 9 7 5 4 4 4 5 6 7 7 5 4 6 5 2 4 7 9 8 7 8 10 10 9 9 8 8 9 11 11 12 13 12 12 12 12 10 9 8
10 9 8 8 7 7 7 6 5 5 3 3 4 4 6 8 8 10 12 13 12 12 13 13 13 12 8 5 5 7 8 9 9 10 10 9 8 8 7 7 8 9 8 8 8 9 8 7 5 5 4 4 3 4 5 5 6 5 3 4 4 3 1 3 6 7 6 6 8 10 10 9 7 6 7 8 10 10 11 11 12 12 11 11 10 9 9
4 5 5 5 7 9 9 9 9 8 7 6 5 4 4 5 6 9 12 12 11 11 12 13 13 11 8 6 7 8 9 9 10 10 9 9 8 7 6 6 7 7 6 6 6 6 5 4 3 4 4 4 4 4 4 4 4 3 2 3 4 2 0 1 4 5 5 6 9 10 10 8 6 5 6 7 8 9 9 10 11 12 11 11 11 10 10
6 6 8 8 8 8 9 10 9 8 6 5 5 6 5 4 5 8 11 12 12 12 14 15 15 12 9 7 7 7 8 9 9 9 8 7 6 6 7 7 6 6 6 5 3 5 6 4 3 4 5 6 6 5 3 2 2 3 2 3 4 3 2 1 2 3 4 6 8 9 8 6 6 7 7 7 7 9 9 10 10 11 11 11 12 13 12
8 6 6 7 8 9 9 8 6 4 4 3 3 5 7 7 5 6 9 12 12 13 15 16 15 11 8 7 8 8 8 8 8 8 7 6 6 7 8 8 7 7 7 5 4 5 4 4 4 5 7 7 6 5 2 1 2 3 3 3 3 3 3 2 0 2 4 6 8 8 5 5 8 9 9 8 8 10 10 10 9 9 10 13 15 15 14
5 7 5 5 7 8 6 4 3 2 1 2 3 5 8 8 6 5 9 12 13 14 17 18 14 11 10 10 10 9 8 7 8 7 6 6 6 7 9 9 8 7 7 5 5 5 4 4 5 6 6 5 5 5 2 1 3 5 4 2 2 2 2 2 1 2 4 6 7 6 5 7 9 9 9 8 8 9 10 9 8 9 12 14 16 16 16
3 3 3 4 5 5 5 4 5 5 5 2 3 5 8 8 7 6 7 11 14 16 18 18 15 13 13 13 11 9 7 6 6 7 7 7 7 8 10 9 6 7 8 7 6 6 6 6 5 5 4 4 5 5 3 1 4 6 5 3 1 1 0 1 1 1 3 4 5 5 6 8 9 9 8 7 7 8 8 8 8 11 13 15 16 16 17
6 6 4 2 2 2 4 6 6 6 5 3 2 3 4 4 5 7 7 8 12 17 20 18 16 15 14 13 11 9 7 6 7 7 8 8 9 10 10 8 5 6 9 9 7 7 9 9 7 6 5 4 4 5 3 2 5 8 8 4 1 1 1 1 2 2 3 4 5 5 7 8 9 9 9 8 8 8 8 9 10 12 14 15 16 17 18
8 8 8 7 6 6 7 9 10 11 11 10 8 7 5 4 6 7 7 5 8 15 20 19 16 15 13 12 12 10 8 8 10 10 10 11 10 10 9 7 4 4 8 9 8 9 11 10 9 8 7 5 4 4 4 4 7 11 10 6 3 2 3 2 3 3 3 3 4 6 7 7 8 9 9 9 8 8 8 10 11 12 14 15 16 17 18
11 9 8 9 10 10 10 11 12 13 14 16 15 13 12 10 10 10 8 5 7 14 19 19 17 16 15 13 13 11 10 10 12 13 14 14 13 11 10 7 4 4 8 9 10 11 10 8 8 7 6 5 4 4 4 5 10 13 11 8 5 4 4 3 3 3 3 3 5 6 7 8 8 8 8 8 8 9 10 11 11 12 14 14 15 16 16
13 12 10 10 11 11 12 13 14 14 15 16 16 16 14 13 12 13 11 9 11 16 19 19 18 18 16 14 12 10 9 9 11 13 15 15 15 14 14 12 9 9 10 10 10 10 9 8 8 6 6 5 4 3 2 6 12 14 12 9 7 6 5 4 4 3 3 5 6 6 6 7 8 7 7 8 8 9 10 11 11 12 13 14 14 15 15
11 10 10 11 12 11 10 12 14 15 14 13 13 13 14 13 13 14 14 12 13 15 16 16 16 16 15 13 12 10 9 8 9 10 12 13 13 13 13 12 12 13 13 11 10 9 9 9 8 7 6 5 5 4 3 6 10 13 13 11 8 7 6 6 5 5 5 6 7 6 5 6 6 7 7 7 7 8 9 10 12 12 13 14 14 14 15
8 7 7 8 9 9 7 8 10 12 13 11 10 13 15 14 14 16 16 16 15 14 13 12 13 14 13 11 11 11 11 10 9 8 8 9 10 10 10 10 12 14 14 11 9 9 10 8 7 7 6 5 5 6 6 7 8 10 13 13 10 8 7 7 7 7 7 7 7 7 6 5 5 5 6 6 6 7 8 9 11 12 12 13 13 14 15
7 6 4 4 5 5 4 4 7 11 13 11 10 13 14 12 12 14 16 17 16 14 12 11 12 14 14 10 9 10 12 13 12 9 8 9 9 8 7 8 12 14 12 10 9 9 9 8 7 7 7 6 6 7 8 7 6 7 10 13 13 10 7 8 8 8 8 9 8 7 6 6 6 6 6 6 6 8 9 10 11 11 11 11 12 12 12
6 5 6 5 5 4 4 5 8 11 12 10 9 10 11 10 11 11 13 16 15 13 12 11 12 15 15 12 10 11 12 12 11 9 8 9 9 7 6 8 11 12 11 10 9 9 9 8 8 8 9 7 7 8 7 5 4 5 7 11 13 12 9 9 10 10 10 10 10 9 8 8 8 7 7 7 8 9 10 10 10 11 11 11 10 10 9
5 6 7 8 7 5 4 4 7 8 8 8 8 10 10 10 9 7 8 11 11 10 7 6 7 11 15 16 15 13 12 11 11 9 8 8 9 8 6 6 8 10 10 9 8 8 8 7 8 9 9 8 9 9 7 5 5 6 7 8 11 12 11 10 10 10 10 11 11 10 10 10 9 8 8 8 9 10 11 10 10 10 10 9 9 8 8
7 6 6 5 4 3 2 4 5 5 5 6 8 9 8 7 7 6 5 7 8 9 7 4 2 4 9 15 17 17 14 11 11 10 8 7 9 10 8 6 6 7 8 8 7 6 7 9 9 8 8 9 9 9 7 6 6 6 7 8 9 11 13 12 12 11 11 11 12 11 11 11 10 9 9 8 9 10 11 10 10 9 9 8 8 7 6
5 4 3 2 1 2 2 2 3 3 3 3 3 3 4 4 5 6 5 5 7 10 11 9 5 3 4 7 12 16 15 12 10 10 8 8 9 10 9 6 5 6 8 10 8 7 9 11 10 7 8 9 9 7 6 6 5 6 7 8 10 11 13 13 12 12 11 11 12 12 12 11 11 10 9 9 9 9 9 9 8 8 7 7 6 6 5
1 2 2 2 2 2 2 3 4 5 5 4 3 3 2 2 5 8 7 5 7 8 8 9 9 7 3 3 5 10 13 12 11 10 10 10 10 10 10 8 6 6 8 11 10 9 10 11 10 8 8 9 8 7 7 7 6 6 8 9 9 10 10 11 11 11 11 11 11 11 11 11 11 11 10 10 10 10 9 9 9 8 8 7 7 6 6
Wind_Direction
354 33 65 91 89 85 72 57 34 11 3 12 27 1 288 147 146 177 168 147 146 155 153 143 143 140 129 123 117 111 104 96 91 86 79 73 69 65 61 56 56 56 54 55 56 54 55 56 57 65 78 91 99 101 108 124 152 174 162 145 161 177 166 147 151 161 164 176 187 184 186 187 180 175 173 174 180 180 179 186 201 193 186 185 184 188 191
8 17 12 56 89 87 64 51 37 16 1 4 26 13 349 45 133 141 136 133 130 133 148 147 138 132 125 118 111 102 97 93 88 83 80 75 70 69 67 61 59 59 56 56 58 57 55 53 55 62 68 75 81 84 100 118 132 142 143 146 157 162 154 148 152 157 160 167 170 167 174 183 186 188 184 182 188 190 194 212 242 220 199 193 191 193 196
9 9 1 12 84 96 67 42 29 16 1 360 17 11 8 44 90 118 123 122 108 76 122 118 102 100 108 109 107 101 96 96 92 85 81 78 72 69 67 63 60 57 55 54 53 52 52 52 56 61 65 70 75 77 89 103 112 116 115 119 125 127 132 144 150 148 151 163 168 164 165 163 166 175 179 184 191 187 181 190 210 213 203 200 202 204 207
348 356 357 348 70 83 60 29 13 3 354 352 353 341 358 74 109 118 119 125 139 143 119 98 83 92 103 102 101 97 92 93 94 92 89 84 78 71 64 56 52 49 45 46 46 43 43 50 55 58 65 71 74 76 83 91 95 95 94 91 90 94 101 109 114 115 116 124 144 160 174 165 145 149 164 174 180 174 166 167 156 159 184 195 202 206 211
335 344 347 315 353 61 47 13 359 342 311 291 315 350 21 56 112 134 141 151 149 135 120 110 102 97 95 91 91 97 99 94 91 92 92 89 83 75 66 54 47 46 43 43 42 37 34 41 49 57 66 70 72 74 80 84 84 82 80 77 76 77 79 81 81 80 82 86 90 96 111 121 105 96 108 129 155 157 142 146 156 161 199 214 220 217 216
308 328 342 347 33 60 71 354 3 339 312 314 53 56 39 37 58 129 134 125 119 111 107 112 110 97 91 92 89 89 97 99 95 89 84 84 83 78 74 67 54 48 48 48 48 44 38 36 41 54 65 70 71 73 75 76 75 74 73 71 68 66 66 67 67 66 69 72 72 71 73 77 76 72 66 58 53 51 38 353 333 330 321 299 283 271 263
132 334 6 48 76 71 228 289 358 356 335 1 76 78 49 33 40 68 87 98 103 98 95 102 105 103 101 98 88 76 76 88 97 94 82 78 81 80 78 79 71 61 56 51 49 48 45 40 39 45 56 64 66 67 67 68 68 67 67 66 63 60 59 58 57 57 58 61 62 62 63 65 66 64 59 56 54 49 43 29 3 348 342 328 306 289 279
106 62 43 85 146 316 326 339 1 11 358 1 50 68 44 25 42 74 82 87 96 100 102 104 105 109 105 89 71 66 72 77 86 92 88 82 85 85 84 85 82 76 73 68 61 58 57 56 51 45 48 57 62 61 60 60 61 60 58 57 54 52 50 47 45 45 46 46 46 45 46 48 49 46 43 41 38 34 35 39 35 23 9 349 329 312 293
106 104 63 66 54 335 348 357 351 6 24 334 3 73 47 23 59 101 100 98 104 107 107 107 107 104 94 79 54 46 66 76 81 85 91 96 98 98 96 92 89 86 83 81 77 70 65 65 62 55 52 55 57 56 51 48 48 49 48 47 44 43 41 38 35 34 33 33 32 31 32 32 30 28 26 25 22 16 11 11 11 8 -0 348 339 332 319
100 106 90 66 55 339 311 294 289 241 183 219 259 130 54 21 65 126 123 118 120 119 116 124 130 101 80 74 47 38 63 76 80 83 89 97 103 106 104 100 95 88 81 75 70 66 62 58 53 51 54 56 56 54 50 46 46 47 46 42 38 35 33 30 29 28 26 24 21 19 21 22 19 15 13 11 9 6 2 357 354 353 348 339 332 330 327
75 96 108 103 95 240 264 280 286 273 230 265 285 129 53 10 42 132 133 132 137 137 138 150 153 110 96 107 167 147 94 86 85 84 79 81 89 94 93 94 92 87 82 76 67 58 56 52 45 42 48 55 58 57 52 49 49 50 49 45 40 37 33 31 31 30 27 23 17 14 14 14 13 10 7 2 358 355 353 350 347 344 342 336 328 325 324
53 79 90 74 71 256 278 292 294 292 301 329 6 135 133 24 57 106 120 130 143 151 153 154 120 101 131 148 164 166 130 100 97 100 95 89 88 84 79 79 81 79 78 74 67 60 57 54 49 49 51 57 60 58 55 55 53 49 47 45 44 42 36 32 31 31 28 24 20 17 14 10 8 6 1 356 351 348 346 345 342 339 338 337 331 325 323
46 80 89 59 287 273 295 297 293 290 303 19 86 185 212 155 114 99 100 106 108 118 132 117 78 82 121 132 140 143 126 109 105 109 109 103 95 87 78 71 72 73 71 71 70 65 59 53 46 43 45 53 59 58 57 56 50 43 43 47 48 45 38 31 28 25 23 20 18 17 14 10 7 4 359 355 352 349 347 344 341 339 337 336 331 326 322
33 82 85 74 244 310 324 307 298 323 96 152 191 305 340 101 104 82 84 99 103 95 95 102 106 110 115 123 132 135 129 125 122 120 117 107 95 86 75 67 72 77 74 74 71 58 48 44 40 35 39 47 51 50 48 45 42 45 51 52 47 42 36 30 25 19 15 11 8 7 6 5 4 3 2 359 357 356 356 353 352 350 345 339 335 330 323
44 66 50 52 217 321 331 322 320 19 57 189 215 33 38 56 78 80 80 97 112 108 101 103 111 115 117 123 127 124 121 118 117 120 118 105 93 83 70 64 71 86 87 84 75 56 44 41 41 41 46 47 41 40 42 42 44 49 48 40 32 27 24 20 16 11 8 5 3 2 1 1 2 1 2 2 2 3 4 2 1 358 351 345 340 334 328
66 89 60 61 305 324 344 13 64 46 7 349 73 76 58 42 51 72 74 78 102 112 113 112 113 115 115 115 112 106 101 97 96 102 106 102 92 82 71 64 60 70 89 93 81 63 54 52 48 42 43 44 45 50 51 46 41 37 29 21 17 14 12 9 6 4 3 2 2 3 3 2 2 2 1 360 359 1 2 2 0 356 352 348 343 339 334
74 100 113 110 88 6 20 53 79 74 58 51 66 81 78 55 41 59 74 70 73 95 108 109 106 106 106 103 101 98 96 94 90 91 97 99 91 79 71 63 53 59 89 101 91 76 64 54 47 43 49 60 64 61 51 39 32 27 19 14 12 9 6 3 359 358 359 0 1 1 1 0 -0 360 358 356 354 354 353 353 354 352 350 348 345 342 338
80 74 85 99 88 65 56 62 70 74 72 65 68 75 75 65 57 64 74 75 68 72 86 92 91 93 96 96 95 95 93 89 90 93 96 97 92 84 73 59 51 62 91 99 88 76 66 57 60 65 68 71 67 56 44 36 30 23 15 11 8 5 1 358 354 352 352 353 353 351 350 350 351 351 351 349 347 345 344 344 344 344 343 343 342 340 336
91 86 105 105 97 93 85 78 73 67 64 60 65 75 79 75 70 70 71 71 68 64 68 75 78 78 84 88 85 87 91 89 89 92 92 92 91 86 77 63 54 59 74 76 70 69 67 68 75 76 70 64 55 45 39 34 25 16 11 7 3 1 359 355 352 350 348 347 346 344 343 343 343 342 341 340 339 338 339 338 336 335 335 334 334 333 330
77 117 138 108 86 80 77 82 84 78 73 68 67 78 91 88 80 80 81 81 77 71 72 81 84 77 78 87 90 88 89 89 90 91 92 92 89 83 79 74 58 48 57 67 71 71 67 65 68 67 61 56 47 35 29 22 12 5 3 -0 358 357 356 354 352 350 347 344 340 339 338 337 337 336 335 334 333 330 330 330 327 326 326 325 324 324 323
79 102 117 99 73 45 35 70 98 107 106 99 90 84 90 95 95 92 91 95 105 111 106 100 96 92 93 101 101 98 93 94 97 97 98 97 92 83 75 59 40 38 69 81 80 73 60 53 50 43 42 45 36 23 15 8 2 359 357 356 356 354 351 351 352 350 346 343 338 336 335 334 334 333 330 326 323 320 318 318 316 315 316 316 317 317 316
142 181 158 134 116 96 106 127 126 128 121 112 107 100 98 103 109 108 99 95 102 111 118 121 116 114 124 123 112 102 103 113 116 112 108 105 97 88 75 53 53 76 96 94 90 79 60 47 33 22 23 28 20 10 1 356 356 356 356 354 352 349 344 342 344 345 344 342 338 334 331 329 326 324 321 319 316 312 310 310 308 307 308 309 312 314 312
192 195 166 143 132 152 184 164 143 141 128 113 112 116 118 117 120 121 118 107 94 96 116 133 134 123 106 108 104 95 100 117 120 112 105 104 100 95 91 81 76 73 68 70 73 67 54 33 12 5 358 347 352 352 346 348 352 354 355 351 345 343 339 333 333 335 335 332 330 327 325 324 322 319 317 315 313 309 308 309 308 307 308 309 310 313 313
149 152 145 135 124 135 155 143 135 140 129 111 99 100 102 95 97 106 109 115 118 112 104 113 120 111 100 103 107 104 106 111 107 99 101 106 107 106 101 94 84 67 57 57 49 42 41 10 344 339 321 316 328 327 307 327 346 350 349 344 337 335 334 330 327 325 322 320 321 323 324 326 324 322 317 313 311 311 312 312 310 309 310 310 312 315 316
110 108 105 96 100 109 111 102 97 104 109 106 101 107 108 102 105 108 102 103 122 128 122 107 112 115 113 113 116 116 113 109 108 112 116 117 116 116 109 98 87 68 55 52 35 29 15 319 320 324 316 313 316 290 262 298 341 347 344 339 331 327 326 323 320 317 314 316 320 324 329 330 328 325 319 312 308 311 314 315 314 312 310 310 313 318 319
97 99 78 67 71 84 93 86 73 86 105 108 112 121 110 99 103 112 117 123 130 133 132 128 124 124 123 123 123 122 118 117 121 126 130 131 131 133 133 134 141 159 289 310 20 260 279 297 314 319 316 315 308 267 242 286 336 341 342 339 331 324 320 317 314 312 316 323 327 329 333 333 330 328 325 319 315 313 313 315 317 316 314 313 315 319 320
77 88 83 73 56 43 76 107 130 142 128 118 114 111 99 87 89 106 122 130 132 134 138 138 134 132 134 136 136 136 134 135 137 141 146 152 156 159 171 185 197 222 248 243 192 208 263 299 316 312 313 334 340 294 245 299 328 335 341 339 329 320 312 309 310 315 323 329 331 331 330 328 327 329 330 329 327 323 318 314 314 314 312 313 316 319 319
80 86 95 104 114 125 131 132 135 136 130 123 119 108 83 66 66 77 101 118 119 121 134 141 138 139 144 149 151 152 154 154 155 156 160 167 172 175 184 194 204 244 257 242 215 227 268 295 303 298 310 354 16 343 289 313 324 333 336 329 318 310 307 307 314 325 331 333 334 332 327 323 322 324 326 326 326 324 319 314 310 308 308 312 318 321 322
111 109 107 125 146 148 134 115 117 132 140 138 134 124 105 89 72 55 70 116 120 118 131 144 147 149 154 160 163 164 163 159 158 161 165 170 175 181 191 204 224 262 262 246 238 253 270 280 284 290 305 346 21 325 299 309 322 331 326 313 306 309 312 316 325 333 337 336 336 334 330 326 321 318 317 316 315 313 311 311 311 309 310 314 319 322 326
143 132 120 124 128 118 104 87 160 199 191 160 137 132 128 120 104 83 99 126 128 126 136 144 144 148 155 163 170 173 169 163 162 163 167 175 183 194 207 217 226 241 249 244 247 257 263 270 279 288 302 334 350 313 298 299 315 325 317 302 302 314 321 328 335 338 339 337 333 328 326 325 321 315 311 310 310 311 313 315 316 314 314 317 319 321 327
130 111 104 89 74 80 80 55 43 210 204 168 137 131 131 123 112 113 129 135 134 139 145 145 146 153 161 163 165 168 166 168 177 188 198 204 206 210 219 223 228 242 251 248 243 246 254 265 275 285 300 317 302 294 295 295 309 317 311 298 306 320 328 337 339 337 336 336 332 326 321 319 320 319 315 312 313 316 319 320 319 319 321 321 321 325 331
93 81 85 75 60 57 42 26 56 80 115 156 154 161 162 150 139 141 151 154 153 153 156 158 162 167 167 163 163 163 166 191 223 228 226 227 223 222 227 231 235 246 254 253 244 243 252 263 271 278 287 284 267 269 289 298 304 308 304 301 315 322 329 342 347 343 344 345 345 341 331 322 320 321 320 321 326 329 329 327 327 330 332 328 327 334 344
104 91 100 109 100 81 13 353 65 98 104 150 185 196 190 167 154 155 160 162 162 162 166 171 173 173 171 169 172 184 207 227 236 236 233 232 230 228 232 238 243 248 251 252 246 240 246 259 267 267 265 265 256 251 269 291 302 300 295 304 319 321 328 358 3 357 357 360 359 356 346 335 333 334 335 341 348 347 345 346 347 348 346 341 341 351 359
148 163 176 173 163 159 173 189 155 141 91 68 145 182 183 171 162 163 166 166 166 169 176 180 177 172 171 174 192 216 222 227 235 234 228 222 223 227 231 237 247 252 251 247 240 236 243 255 261 255 251 258 249 238 252 282 296 291 287 307 320 319 341 32 19 11 13 14 7 -0 354 352 356 358 357 2 6 7 8 13 14 8 3 4 8 10 4
163 171 183 185 176 167 161 149 136 132 121 99 114 161 188 190 183 177 176 175 173 176 180 179 173 169 174 193 217 223 226 236 243 237 225 217 219 226 231 239 251 259 259 247 239 239 241 241 234 234 248 255 235 223 243 276 288 282 285 316 325 327 46 44 29 28 28 20 9 2 -0 3 7 5 7 17 25 28 29 30 27 24 27 33 35 32 28
137 152 158 162 163 161 154 141 133 133 138 145 160 182 195 195 190 188 186 182 179 181 180 174 171 177 190 208 221 229 236 239 237 229 222 221 223 229 240 253 264 273 276 264 241 220 206 199 208 240 254 237 203 201 233 270 276 261 270 318 329 327 284 40 42 44 30 12 6 3 3 12 22 24 29 40 44 40 38 36 33 35 45 54 55 54 54
55 103 123 128 135 139 136 130 131 137 143 155 181 205 217 221 215 207 199 189 181 181 181 177 179 188 199 210 225 235 236 233 230 223 219 222 230 241 253 264 272 278 279 271 218 173 176 195 227 233 216 190 174 179 215 252 242 232 259 312 329 311 270 282 49 50 29 12 5 -0 2 23 52 62 63 65 60 49 39 35 35 41 53 66 71 72 69
52 72 107 127 129 129 133 135 139 149 159 166 202 236 244 251 251 221 205 198 189 186 187 188 189 193 197 205 217 225 226 228 229 223 219 228 242 253 263 271 270 264 260 244 189 171 194 226 211 184 176 174 177 190 210 191 192 222 259 307 328 306 271 256 47 52 31 13 3 0 19 62 79 83 84 82 71 57 41 32 36 51 67 76 79 80 80
35 39 55 88 99 94 88 75 48 23 318 236 237 239 244 253 262 237 209 204 200 195 193 190 187 189 198 208 216 222 227 231 229 224 224 232 243 257 270 274 262 251 245 225 191 191 221 235 208 187 185 204 221 223 214 152 198 223 247 291 324 311 268 232 191 61 33 12 4 15 60 91 98 100 101 97 81 64 49 42 51 69 81 85 85 85 86
331 24 71 98 97 79 52 24 2 353 348 317 242 230 234 246 263 263 232 213 206 202 196 189 187 194 206 214 219 222 222 224 226 229 230 231 238 256 271 275 261 241 233 221 204 208 226 234 223 211 221 253 247 226 207 204 226 228 233 249 288 328 313 190 165 82 41 22 21 42 77 99 109 112 111 104 88 71 62 65 78 88 91 90 89 90 91
264 265 259 226 188 216 257 265 270 283 298 300 275 252 243 249 264 267 254 229 213 206 198 192 195 204 211 218 226 230 225 221 226 231 232 232 233 242 255 269 273 234 219 214 211 221 231 234 231 237 266 287 255 224 233 264 234 218 216 222 237 52 67 103 124 107 70 44 48 69 91 104 111 115 113 103 89 79 79 86 96 100 101 98 96 95 96
253 260 267 263 255 256 259 254 251 255 261 262 264 269 275 285 286 278 270 252 217 206 201 199 205 215 221 225 232 235 236 235 235 234 235 237 235 232 240 263 282 212 201 208 221 232 237 237 230 239 269 284 249 235 272 270 220 205 205 206 184 112 88 93 109 105 81 64 75 95 106 111 112 113 111 104 94 90 96 104 106 105 105 106 105 104 101
250 246 253 258 257 257 255 250 248 252 256 258 262 265 264 268 279 279 269 239 200 198 201 204 212 221 227 228 228 230 234 239 239 239 239 243 245 242 243 256 263 208 200 215 231 238 238 229 217 229 266 275 238 239 273 236 201 194 199 199 177 128 101 108 123 111 93 94 103 109 113 120 122 119 113 109 104 102 108 114 115 112 110 111 110 108 106
266 244 236 244 250 253 254 253 250 249 253 261 270 273 266 261 271 278 268 232 198 195 202 210 218 222 225 223 222 225 232 236 238 240 241 243 248 250 248 247 245 230 221 227 238 238 227 212 212 235 270 266 230 226 240 199 188 189 194 193 174 140 117 123 136 132 109 103 110 116 117 120 123 123 118 113 111 113 119 124 124 121 120 118 114 110 108
293 264 256 261 259 253 250 251 250 246 244 250 267 277 273 267 273 278 270 244 217 210 215 220 221 219 219 221 225 233 239 239 239 243 241 239 245 255 256 247 236 228 225 231 240 232 215 211 226 248 258 236 207 193 178 174 180 188 194 192 177 153 135 133 143 146 128 111 112 119 120 117 120 125 124 121 119 123 130 134 133 130 128 126 121 117 115
310 301 292 282 269 257 254 259 254 242 229 225 240 260 266 270 278 279 267 248 234 233 239 239 226 215 215 222 230 235 238 239 240 243 241 237 246 261 266 247 226 218 220 231 238 225 214 222 242 245 228 202 181 168 163 162 173 186 193 193 186 167 149 146 152 153 142 132 129 126 121 116 116 119 123 127 132 141 147 145 140 136 134 131 127 125 124
310 314 303 276 259 253 251 246 234 224 217 220 239 255 263 277 291 281 257 238 233 239 250 251 234 221 219 225 232 232 233 235 235 238 246 248 251 259 256 229 212 210 218 234 238 226 224 238 246 228 206 190 168 160 161 161 163 175 186 190 189 178 159 153 158 156 152 152 152 146 139 136 132 127 129 136 147 157 158 152 146 144 144 141 138 135 134
298 293 287 278 264 249 234 221 216 214 214 224 247 264 272 291 306 287 247 229 228 237 248 254 246 232 225 226 232 233 232 231 233 239 249 249 245 243 236 221 217 222 234 241 238 233 238 241 228 207 199 194 181 172 172 177 177 173 178 185 189 187 178 166 163 160 160 164 169 169 166 161 153 148 149 153 158 163 163 159 157 157 155 150 147 146 142
283 287 296 291 269 245 219 208 211 215 225 248 276 288 286 285 292 281 241 222 222 228 237 261 269 248 232 228 230 232 233 233 238 247 254 244 232 227 224 222 229 240 243 236 231 236 237 219 198 193 199 199 191 188 197 216 218 200 187 184 190 195 192 182 171 166 166 169 173 177 176 172 168 165 165 165 168 171 172 173 173 173 168 163 160 157 151
278 280 296 296 271 242 201 196 206 217 237 259 282 302 304 283 267 258 236 225 231 237 236 245 302 274 240 231 230 231 230 232 240 249 250 230 215 215 219 229 244 246 230 212 210 219 209 189 180 185 195 194 191 197 214 229 226 211 198 188 187 191 191 187 182 179 179 178 179 180 182 184 184 183 180 180 182 183 182 181 182 182 180 179 178 173 169
273 256 263 283 262 244 230 212 202 197 199 215 246 307 327 299 279 282 276 252 246 249 246 242 245 256 242 232 232 230 226 227 236 244 238 218 207 209 216 228 241 232 211 201 199 198 191 184 179 179 184 187 194 211 224 223 213 199 187 180 178 180 183 186 187 189 191 192 192 193 195 197 198 197 195 196 197 195 196 198 200 197 196 197 201 205 207
166 174 158 126 128 149 152 142 145 147 137 119 91 47 14 321 305 307 299 263 243 252 261 262 259 254 234 211 226 228 225 224 229 233 231 224 218 216 219 224 225 218 210 207 203 198 192 191 191 189 190 198 213 228 229 220 208 192 180 176 177 179 181 185 188 188 189 191 197 202 205 206 205 205 205 204 203 204 211 219 224 226 229 232 233 231 229